sat.trackr.live / text

‹ back to catalog

STARLINK-34299

NORAD 64383 · 2025-127P

PAYLOAD ACTIVE UNKNOWN

§ Identity

Operator
Country
US
Launch date
2025-06-13
Launch site
AFETR
Launch vehicle
Mass (kg)
RCS (m²)

Purposes: comms

External: N2YO · Heavens-Above · Gunter

§ Orbital elements

Epoch: 2026-05-25T04:00:03.998880Z

Period
94.27 min
Inclination
42.9998°
Eccentricity
0.0001006
Mean motion
15.27569833 rev/d
Perigee alt
482.4 km
Apogee alt
483.8 km
Semi-major
6,861.2 km
B*
9.8640e-5
RAAN
108.2700°
Arg perigee
268.6560°
Mean anomaly
277.2035°
Rev number
585

§ Raw data

STARLINK-342991 64383U 25127P   26145.16671295  .00002452  00000+0  98640-4 0  99992 64383  42.9998 108.2700 0001006 268.6560 277.2035 15.27569833  5858

JSON: /api/v1/satellites/64383 · /tle

For live sub-satellite position, see the globe view (requires WebGL).

§ Visibility from observer

Set your observer location to see the next 7 days of passes ≥ 10°. The values pass through the URL so the page stays shareable.

No JS? Fill the form by hand. The geolocation button needs JavaScript.